<?xml version="1.0" encoding="UTF-8" standalone="no" ?>
<gpx xmlns="http://www.topografix.com/GPX/1/1" xmlns:xsi="http://www.w3.org/2001/XMLSchema-instance" xsi:schemaLocation="http://www.topografix.com/GPX/1/1 http://www.topografix.com/GPX/1/1/gpx.xsd" version="1.1" creator="VisuGPX - https://www.visugpx.com">
  <metadata>
    <name>ERQUY</name>
    <desc><![CDATA[Le tour du Cap d\'ERQUY au départ du parking de la Plage du Portuais.]]></desc>
  </metadata>
  <trk>
    <name><![CDATA[ERQUY_1]]></name>
    <trkseg>
      <trkpt lat="48.64545" lon="-2.45649">
        <ele>35.6</ele>
        <time>2012-09-16T11:16:24Z</time>
      </trkpt>
      <trkpt lat="48.64574" lon="-2.4562">
        <ele>35.2</ele>
        <time>2012-09-16T11:16:24Z</time>
      </trkpt>
      <trkpt lat="48.64582" lon="-2.45618">
        <ele>35</ele>
        <time>2012-09-16T11:16:24Z</time>
      </trkpt>
      <trkpt lat="48.64588" lon="-2.45641">
        <ele>35</ele>
        <time>2012-09-16T11:16:24Z</time>
      </trkpt>
      <trkpt lat="48.64567" lon="-2.45705">
        <ele>36</ele>
        <time>2012-09-16T11:16:24Z</time>
      </trkpt>
      <trkpt lat="48.64546" lon="-2.45765">
        <ele>37</ele>
        <time>2012-09-16T11:16:24Z</time>
      </trkpt>
      <trkpt lat="48.64525" lon="-2.45826">
        <ele>37.1</ele>
        <time>2012-09-16T11:16:24Z</time>
      </trkpt>
      <trkpt lat="48.64502" lon="-2.45888">
        <ele>38.1</ele>
        <time>2012-09-16T11:16:24Z</time>
      </trkpt>
      <trkpt lat="48.64464" lon="-2.45927">
        <ele>37.9</ele>
        <time>2012-09-16T11:16:24Z</time>
      </trkpt>
      <trkpt lat="48.64422" lon="-2.45954">
        <ele>36.4</ele>
        <time>2012-09-16T11:16:24Z</time>
      </trkpt>
      <trkpt lat="48.64384" lon="-2.45986">
        <ele>34.2</ele>
        <time>2012-09-16T11:16:24Z</time>
      </trkpt>
      <trkpt lat="48.64341" lon="-2.46003">
        <ele>35.6</ele>
        <time>2012-09-16T11:16:24Z</time>
      </trkpt>
      <trkpt lat="48.64299" lon="-2.45987">
        <ele>39.4</ele>
        <time>2012-09-16T11:16:24Z</time>
      </trkpt>
      <trkpt lat="48.64253" lon="-2.45986">
        <ele>42.3</ele>
        <time>2012-09-16T11:16:24Z</time>
      </trkpt>
      <trkpt lat="48.64205" lon="-2.45983">
        <ele>47.1</ele>
        <time>2012-09-16T11:16:24Z</time>
      </trkpt>
      <trkpt lat="48.64159" lon="-2.4598">
        <ele>50.6</ele>
        <time>2012-09-16T11:16:24Z</time>
      </trkpt>
      <trkpt lat="48.6411" lon="-2.45977">
        <ele>52.2</ele>
        <time>2012-09-16T11:16:24Z</time>
      </trkpt>
      <trkpt lat="48.64063" lon="-2.45973">
        <ele>54.7</ele>
        <time>2012-09-16T11:16:24Z</time>
      </trkpt>
      <trkpt lat="48.64016" lon="-2.45971">
        <ele>57.9</ele>
        <time>2012-09-16T11:16:24Z</time>
      </trkpt>
      <trkpt lat="48.63968" lon="-2.45979">
        <ele>60.2</ele>
        <time>2012-09-16T11:16:24Z</time>
      </trkpt>
      <trkpt lat="48.63922" lon="-2.45963">
        <ele>62.3</ele>
        <time>2012-09-16T11:16:24Z</time>
      </trkpt>
      <trkpt lat="48.63898" lon="-2.45993">
        <ele>64.8</ele>
        <time>2012-09-16T11:16:24Z</time>
      </trkpt>
      <trkpt lat="48.63914" lon="-2.46059">
        <ele>64.2</ele>
        <time>2012-09-16T11:16:24Z</time>
      </trkpt>
      <trkpt lat="48.63926" lon="-2.46122">
        <ele>63.9</ele>
        <time>2012-09-16T11:16:24Z</time>
      </trkpt>
      <trkpt lat="48.63939" lon="-2.46196">
        <ele>63.5</ele>
        <time>2012-09-16T11:16:24Z</time>
      </trkpt>
      <trkpt lat="48.63947" lon="-2.4627">
        <ele>65.5</ele>
        <time>2012-09-16T11:16:24Z</time>
      </trkpt>
      <trkpt lat="48.63946" lon="-2.46319">
        <ele>65.9</ele>
        <time>2012-09-16T11:16:24Z</time>
      </trkpt>
      <trkpt lat="48.63905" lon="-2.46324">
        <ele>62.6</ele>
        <time>2012-09-16T11:16:24Z</time>
      </trkpt>
      <trkpt lat="48.63917" lon="-2.46383">
        <ele>60.2</ele>
        <time>2012-09-16T11:16:24Z</time>
      </trkpt>
      <trkpt lat="48.63933" lon="-2.46445">
        <ele>58.8</ele>
        <time>2012-09-16T11:16:24Z</time>
      </trkpt>
      <trkpt lat="48.63932" lon="-2.46515">
        <ele>55.9</ele>
        <time>2012-09-16T11:16:24Z</time>
      </trkpt>
      <trkpt lat="48.6393" lon="-2.4659">
        <ele>52</ele>
        <time>2012-09-16T11:16:24Z</time>
      </trkpt>
      <trkpt lat="48.63946" lon="-2.46651">
        <ele>54.1</ele>
        <time>2012-09-16T11:16:24Z</time>
      </trkpt>
      <trkpt lat="48.63962" lon="-2.46717">
        <ele>54.1</ele>
        <time>2012-09-16T11:16:24Z</time>
      </trkpt>
      <trkpt lat="48.63972" lon="-2.46787">
        <ele>55.3</ele>
        <time>2012-09-16T11:16:24Z</time>
      </trkpt>
      <trkpt lat="48.63973" lon="-2.46841">
        <ele>56.4</ele>
        <time>2012-09-16T11:16:24Z</time>
      </trkpt>
      <trkpt lat="48.63967" lon="-2.46908">
        <ele>57.7</ele>
        <time>2012-09-16T11:16:24Z</time>
      </trkpt>
      <trkpt lat="48.6394" lon="-2.46964">
        <ele>59.7</ele>
        <time>2012-09-16T11:16:24Z</time>
      </trkpt>
      <trkpt lat="48.63916" lon="-2.47028">
        <ele>61.9</ele>
        <time>2012-09-16T11:16:24Z</time>
      </trkpt>
      <trkpt lat="48.63893" lon="-2.47086">
        <ele>61.6</ele>
        <time>2012-09-16T11:16:24Z</time>
      </trkpt>
      <trkpt lat="48.63864" lon="-2.47143">
        <ele>60.5</ele>
        <time>2012-09-16T11:16:24Z</time>
      </trkpt>
      <trkpt lat="48.63836" lon="-2.47195">
        <ele>59.2</ele>
        <time>2012-09-16T11:16:24Z</time>
      </trkpt>
      <trkpt lat="48.6381" lon="-2.47254">
        <ele>58.5</ele>
        <time>2012-09-16T11:16:24Z</time>
      </trkpt>
      <trkpt lat="48.63784" lon="-2.47314">
        <ele>57.7</ele>
        <time>2012-09-16T11:16:24Z</time>
      </trkpt>
      <trkpt lat="48.63743" lon="-2.47333">
        <ele>57.7</ele>
        <time>2012-09-16T11:16:24Z</time>
      </trkpt>
      <trkpt lat="48.63709" lon="-2.47298">
        <ele>52.1</ele>
        <time>2012-09-16T11:16:24Z</time>
      </trkpt>
      <trkpt lat="48.6371" lon="-2.47336">
        <ele>52.4</ele>
        <time>2012-09-16T11:16:24Z</time>
      </trkpt>
      <trkpt lat="48.63722" lon="-2.47364">
        <ele>44.1</ele>
        <time>2012-09-16T11:16:24Z</time>
      </trkpt>
      <trkpt lat="48.63718" lon="-2.47354">
        <ele>47.7</ele>
        <time>2012-09-16T11:16:24Z</time>
      </trkpt>
      <trkpt lat="48.6372" lon="-2.47398">
        <ele>44.4</ele>
        <time>2012-09-16T11:16:24Z</time>
      </trkpt>
      <trkpt lat="48.63697" lon="-2.47446">
        <ele>42.2</ele>
        <time>2012-09-16T11:16:24Z</time>
      </trkpt>
      <trkpt lat="48.63714" lon="-2.47497">
        <ele>42.4</ele>
        <time>2012-09-16T11:16:24Z</time>
      </trkpt>
      <trkpt lat="48.63724" lon="-2.47561">
        <ele>44.1</ele>
        <time>2012-09-16T11:16:24Z</time>
      </trkpt>
      <trkpt lat="48.63743" lon="-2.47616">
        <ele>40.9</ele>
        <time>2012-09-16T11:16:24Z</time>
      </trkpt>
      <trkpt lat="48.63769" lon="-2.4765">
        <ele>48</ele>
        <time>2012-09-16T11:16:24Z</time>
      </trkpt>
      <trkpt lat="48.63759" lon="-2.47666">
        <ele>48</ele>
        <time>2012-09-16T11:16:24Z</time>
      </trkpt>
      <trkpt lat="48.63758" lon="-2.47648">
        <ele>44.7</ele>
        <time>2012-09-16T11:16:24Z</time>
      </trkpt>
      <trkpt lat="48.63755" lon="-2.47651">
        <ele>44.3</ele>
        <time>2012-09-16T11:16:24Z</time>
      </trkpt>
      <trkpt lat="48.63739" lon="-2.47688">
        <ele>41.4</ele>
        <time>2012-09-16T11:16:24Z</time>
      </trkpt>
      <trkpt lat="48.63752" lon="-2.47749">
        <ele>43.9</ele>
        <time>2012-09-16T11:16:24Z</time>
      </trkpt>
      <trkpt lat="48.63759" lon="-2.47812">
        <ele>51.1</ele>
        <time>2012-09-16T11:16:24Z</time>
      </trkpt>
      <trkpt lat="48.63757" lon="-2.47879">
        <ele>47.6</ele>
        <time>2012-09-16T11:16:24Z</time>
      </trkpt>
      <trkpt lat="48.63765" lon="-2.47934">
        <ele>47.4</ele>
        <time>2012-09-16T11:16:24Z</time>
      </trkpt>
      <trkpt lat="48.63774" lon="-2.47996">
        <ele>48.4</ele>
        <time>2012-09-16T11:16:24Z</time>
      </trkpt>
      <trkpt lat="48.63789" lon="-2.48036">
        <ele>46</ele>
        <time>2012-09-16T11:16:24Z</time>
      </trkpt>
      <trkpt lat="48.63802" lon="-2.48096">
        <ele>38.9</ele>
        <time>2012-09-16T11:16:24Z</time>
      </trkpt>
      <trkpt lat="48.63821" lon="-2.48159">
        <ele>41.5</ele>
        <time>2012-09-16T11:16:24Z</time>
      </trkpt>
      <trkpt lat="48.63833" lon="-2.48222">
        <ele>36.8</ele>
        <time>2012-09-16T11:16:24Z</time>
      </trkpt>
      <trkpt lat="48.63845" lon="-2.48273">
        <ele>35.9</ele>
        <time>2012-09-16T11:16:24Z</time>
      </trkpt>
      <trkpt lat="48.63868" lon="-2.48278">
        <ele>41.5</ele>
        <time>2012-09-16T11:16:24Z</time>
      </trkpt>
      <trkpt lat="48.63868" lon="-2.48242">
        <ele>42.4</ele>
        <time>2012-09-16T11:16:24Z</time>
      </trkpt>
      <trkpt lat="48.63858" lon="-2.48176">
        <ele>48.3</ele>
        <time>2012-09-16T11:16:24Z</time>
      </trkpt>
      <trkpt lat="48.63898" lon="-2.48152">
        <ele>49.1</ele>
        <time>2012-09-16T11:16:24Z</time>
      </trkpt>
      <trkpt lat="48.63938" lon="-2.48137">
        <ele>56.9</ele>
        <time>2012-09-16T11:16:24Z</time>
      </trkpt>
      <trkpt lat="48.63964" lon="-2.48156">
        <ele>57.4</ele>
        <time>2012-09-16T11:16:24Z</time>
      </trkpt>
      <trkpt lat="48.63991" lon="-2.48164">
        <ele>57.7</ele>
        <time>2012-09-16T11:16:24Z</time>
      </trkpt>
      <trkpt lat="48.64029" lon="-2.48193">
        <ele>54.2</ele>
        <time>2012-09-16T11:16:24Z</time>
      </trkpt>
      <trkpt lat="48.64068" lon="-2.48222">
        <ele>54.5</ele>
        <time>2012-09-16T11:16:24Z</time>
      </trkpt>
      <trkpt lat="48.64107" lon="-2.48248">
        <ele>52.1</ele>
        <time>2012-09-16T11:16:24Z</time>
      </trkpt>
      <trkpt lat="48.64145" lon="-2.48282">
        <ele>49.8</ele>
        <time>2012-09-16T11:16:24Z</time>
      </trkpt>
      <trkpt lat="48.64179" lon="-2.48325">
        <ele>47.5</ele>
        <time>2012-09-16T11:16:24Z</time>
      </trkpt>
      <trkpt lat="48.64219" lon="-2.48355">
        <ele>47.9</ele>
        <time>2012-09-16T11:16:24Z</time>
      </trkpt>
      <trkpt lat="48.64213" lon="-2.4841">
        <ele>45.1</ele>
        <time>2012-09-16T11:16:24Z</time>
      </trkpt>
      <trkpt lat="48.64206" lon="-2.48483">
        <ele>43.7</ele>
        <time>2012-09-16T11:16:24Z</time>
      </trkpt>
      <trkpt lat="48.64207" lon="-2.48469">
        <ele>43.7</ele>
        <time>2012-09-16T11:16:24Z</time>
      </trkpt>
      <trkpt lat="48.64219" lon="-2.48497">
        <ele>44.8</ele>
        <time>2012-09-16T11:16:24Z</time>
      </trkpt>
      <trkpt lat="48.64248" lon="-2.48552">
        <ele>42.5</ele>
        <time>2012-09-16T11:16:24Z</time>
      </trkpt>
      <trkpt lat="48.64284" lon="-2.48588">
        <ele>41.9</ele>
        <time>2012-09-16T11:16:24Z</time>
      </trkpt>
      <trkpt lat="48.64328" lon="-2.48601">
        <ele>43.2</ele>
        <time>2012-09-16T11:16:24Z</time>
      </trkpt>
      <trkpt lat="48.64371" lon="-2.48613">
        <ele>39.5</ele>
        <time>2012-09-16T11:16:24Z</time>
      </trkpt>
      <trkpt lat="48.64412" lon="-2.48609">
        <ele>44</ele>
        <time>2012-09-16T11:16:24Z</time>
      </trkpt>
      <trkpt lat="48.64446" lon="-2.48645">
        <ele>45.6</ele>
        <time>2012-09-16T11:16:24Z</time>
      </trkpt>
      <trkpt lat="48.64485" lon="-2.48619">
        <ele>44.4</ele>
        <time>2012-09-16T11:16:24Z</time>
      </trkpt>
      <trkpt lat="48.64493" lon="-2.48549">
        <ele>44.4</ele>
        <time>2012-09-16T11:16:24Z</time>
      </trkpt>
      <trkpt lat="48.64481" lon="-2.48476">
        <ele>44</ele>
        <time>2012-09-16T11:16:24Z</time>
      </trkpt>
      <trkpt lat="48.64464" lon="-2.48409">
        <ele>45.2</ele>
        <time>2012-09-16T11:16:24Z</time>
      </trkpt>
      <trkpt lat="48.64445" lon="-2.48342">
        <ele>46.9</ele>
        <time>2012-09-16T11:16:24Z</time>
      </trkpt>
      <trkpt lat="48.64421" lon="-2.48276">
        <ele>43</ele>
        <time>2012-09-16T11:16:24Z</time>
      </trkpt>
      <trkpt lat="48.64383" lon="-2.48245">
        <ele>43.2</ele>
        <time>2012-09-16T11:16:24Z</time>
      </trkpt>
      <trkpt lat="48.64351" lon="-2.48203">
        <ele>35.8</ele>
        <time>2012-09-16T11:16:24Z</time>
      </trkpt>
      <trkpt lat="48.64371" lon="-2.48147">
        <ele>42.4</ele>
        <time>2012-09-16T11:16:24Z</time>
      </trkpt>
      <trkpt lat="48.64367" lon="-2.48074">
        <ele>44.9</ele>
        <time>2012-09-16T11:16:24Z</time>
      </trkpt>
      <trkpt lat="48.64369" lon="-2.48002">
        <ele>47.3</ele>
        <time>2012-09-16T11:16:24Z</time>
      </trkpt>
      <trkpt lat="48.64384" lon="-2.47931">
        <ele>53</ele>
        <time>2012-09-16T11:16:24Z</time>
      </trkpt>
      <trkpt lat="48.64381" lon="-2.47867">
        <ele>49.2</ele>
        <time>2012-09-16T11:16:24Z</time>
      </trkpt>
      <trkpt lat="48.64373" lon="-2.47793">
        <ele>52.1</ele>
        <time>2012-09-16T11:16:24Z</time>
      </trkpt>
      <trkpt lat="48.64352" lon="-2.4773">
        <ele>51.2</ele>
        <time>2012-09-16T11:16:24Z</time>
      </trkpt>
      <trkpt lat="48.64347" lon="-2.47656">
        <ele>48.8</ele>
        <time>2012-09-16T11:16:24Z</time>
      </trkpt>
      <trkpt lat="48.64335" lon="-2.47596">
        <ele>47.4</ele>
        <time>2012-09-16T11:16:24Z</time>
      </trkpt>
      <trkpt lat="48.64311" lon="-2.47634">
        <ele>50.7</ele>
        <time>2012-09-16T11:16:24Z</time>
      </trkpt>
      <trkpt lat="48.64275" lon="-2.47615">
        <ele>40.1</ele>
        <time>2012-09-16T11:16:24Z</time>
      </trkpt>
      <trkpt lat="48.64294" lon="-2.47564">
        <ele>35.4</ele>
        <time>2012-09-16T11:16:24Z</time>
      </trkpt>
      <trkpt lat="48.64332" lon="-2.47528">
        <ele>27.3</ele>
        <time>2012-09-16T11:16:24Z</time>
      </trkpt>
      <trkpt lat="48.64377" lon="-2.47529">
        <ele>22</ele>
        <time>2012-09-16T11:16:24Z</time>
      </trkpt>
      <trkpt lat="48.64412" lon="-2.47568">
        <ele>19.3</ele>
        <time>2012-09-16T11:16:24Z</time>
      </trkpt>
      <trkpt lat="48.64448" lon="-2.47539">
        <ele>12.8</ele>
        <time>2012-09-16T11:16:24Z</time>
      </trkpt>
      <trkpt lat="48.64477" lon="-2.47488">
        <ele>11.8</ele>
        <time>2012-09-16T11:16:24Z</time>
      </trkpt>
      <trkpt lat="48.64498" lon="-2.47431">
        <ele>11.2</ele>
        <time>2012-09-16T11:16:24Z</time>
      </trkpt>
      <trkpt lat="48.64502" lon="-2.47373">
        <ele>15.7</ele>
        <time>2012-09-16T11:16:24Z</time>
      </trkpt>
      <trkpt lat="48.6447" lon="-2.47321">
        <ele>27.7</ele>
        <time>2012-09-16T11:16:24Z</time>
      </trkpt>
      <trkpt lat="48.64455" lon="-2.47257">
        <ele>42</ele>
        <time>2012-09-16T11:16:24Z</time>
      </trkpt>
      <trkpt lat="48.64483" lon="-2.47204">
        <ele>44.2</ele>
        <time>2012-09-16T11:16:24Z</time>
      </trkpt>
      <trkpt lat="48.64523" lon="-2.47182">
        <ele>43</ele>
        <time>2012-09-16T11:16:24Z</time>
      </trkpt>
      <trkpt lat="48.64556" lon="-2.47164">
        <ele>42</ele>
        <time>2012-09-16T11:16:24Z</time>
      </trkpt>
      <trkpt lat="48.64588" lon="-2.47114">
        <ele>41.5</ele>
        <time>2012-09-16T11:16:24Z</time>
      </trkpt>
      <trkpt lat="48.64616" lon="-2.47061">
        <ele>42.6</ele>
        <time>2012-09-16T11:16:24Z</time>
      </trkpt>
      <trkpt lat="48.64655" lon="-2.47033">
        <ele>42.2</ele>
        <time>2012-09-16T11:16:24Z</time>
      </trkpt>
      <trkpt lat="48.64695" lon="-2.47013">
        <ele>40.5</ele>
        <time>2012-09-16T11:16:24Z</time>
      </trkpt>
      <trkpt lat="48.64735" lon="-2.46984">
        <ele>40.4</ele>
        <time>2012-09-16T11:16:24Z</time>
      </trkpt>
      <trkpt lat="48.64779" lon="-2.46971">
        <ele>41</ele>
        <time>2012-09-16T11:16:24Z</time>
      </trkpt>
      <trkpt lat="48.64811" lon="-2.46932">
        <ele>42.7</ele>
        <time>2012-09-16T11:16:24Z</time>
      </trkpt>
      <trkpt lat="48.64821" lon="-2.46871">
        <ele>41</ele>
        <time>2012-09-16T11:16:24Z</time>
      </trkpt>
      <trkpt lat="48.64828" lon="-2.46804">
        <ele>40.2</ele>
        <time>2012-09-16T11:16:24Z</time>
      </trkpt>
      <trkpt lat="48.64859" lon="-2.46765">
        <ele>39.5</ele>
        <time>2012-09-16T11:16:24Z</time>
      </trkpt>
      <trkpt lat="48.64901" lon="-2.46764">
        <ele>37.3</ele>
        <time>2012-09-16T11:16:24Z</time>
      </trkpt>
      <trkpt lat="48.64943" lon="-2.46738">
        <ele>33.8</ele>
        <time>2012-09-16T11:16:24Z</time>
      </trkpt>
      <trkpt lat="48.64911" lon="-2.46698">
        <ele>38.1</ele>
        <time>2012-09-16T11:16:24Z</time>
      </trkpt>
      <trkpt lat="48.64891" lon="-2.46637">
        <ele>37.6</ele>
        <time>2012-09-16T11:16:24Z</time>
      </trkpt>
      <trkpt lat="48.64879" lon="-2.46568">
        <ele>38.7</ele>
        <time>2012-09-16T11:16:24Z</time>
      </trkpt>
      <trkpt lat="48.64863" lon="-2.46509">
        <ele>39.1</ele>
        <time>2012-09-16T11:16:24Z</time>
      </trkpt>
      <trkpt lat="48.64825" lon="-2.46467">
        <ele>34.6</ele>
        <time>2012-09-16T11:16:24Z</time>
      </trkpt>
      <trkpt lat="48.64791" lon="-2.46428">
        <ele>35.3</ele>
        <time>2012-09-16T11:16:24Z</time>
      </trkpt>
      <trkpt lat="48.64752" lon="-2.46402">
        <ele>37.5</ele>
        <time>2012-09-16T11:16:24Z</time>
      </trkpt>
      <trkpt lat="48.64712" lon="-2.46379">
        <ele>37.6</ele>
        <time>2012-09-16T11:16:24Z</time>
      </trkpt>
      <trkpt lat="48.64699" lon="-2.46345">
        <ele>37.9</ele>
        <time>2012-09-16T11:16:24Z</time>
      </trkpt>
      <trkpt lat="48.64736" lon="-2.46301">
        <ele>20.8</ele>
        <time>2012-09-16T11:16:24Z</time>
      </trkpt>
      <trkpt lat="48.64749" lon="-2.46236">
        <ele>15.3</ele>
        <time>2012-09-16T11:16:24Z</time>
      </trkpt>
      <trkpt lat="48.64749" lon="-2.46173">
        <ele>12.4</ele>
        <time>2012-09-16T11:16:24Z</time>
      </trkpt>
      <trkpt lat="48.64736" lon="-2.46106">
        <ele>12.5</ele>
        <time>2012-09-16T11:16:24Z</time>
      </trkpt>
      <trkpt lat="48.64762" lon="-2.46059">
        <ele>10.9</ele>
        <time>2012-09-16T11:16:24Z</time>
      </trkpt>
      <trkpt lat="48.64749" lon="-2.45988">
        <ele>20.4</ele>
        <time>2012-09-16T11:16:24Z</time>
      </trkpt>
      <trkpt lat="48.6474" lon="-2.45932">
        <ele>32.4</ele>
        <time>2012-09-16T11:16:24Z</time>
      </trkpt>
      <trkpt lat="48.6478" lon="-2.45919">
        <ele>31.4</ele>
        <time>2012-09-16T11:16:24Z</time>
      </trkpt>
      <trkpt lat="48.64798" lon="-2.45882">
        <ele>33.7</ele>
        <time>2012-09-16T11:16:24Z</time>
      </trkpt>
      <trkpt lat="48.64804" lon="-2.45811">
        <ele>41.7</ele>
        <time>2012-09-16T11:16:24Z</time>
      </trkpt>
      <trkpt lat="48.64811" lon="-2.45744">
        <ele>42</ele>
        <time>2012-09-16T11:16:24Z</time>
      </trkpt>
      <trkpt lat="48.64794" lon="-2.45681">
        <ele>37.6</ele>
        <time>2012-09-16T11:16:24Z</time>
      </trkpt>
      <trkpt lat="48.64778" lon="-2.45611">
        <ele>37.8</ele>
        <time>2012-09-16T11:16:24Z</time>
      </trkpt>
      <trkpt lat="48.64763" lon="-2.45539">
        <ele>33.9</ele>
        <time>2012-09-16T11:16:24Z</time>
      </trkpt>
      <trkpt lat="48.64729" lon="-2.45509">
        <ele>38.6</ele>
        <time>2012-09-16T11:16:24Z</time>
      </trkpt>
      <trkpt lat="48.6469" lon="-2.45535">
        <ele>35.1</ele>
        <time>2012-09-16T11:16:24Z</time>
      </trkpt>
      <trkpt lat="48.64662" lon="-2.4558">
        <ele>35</ele>
        <time>2012-09-16T11:16:24Z</time>
      </trkpt>
      <trkpt lat="48.64618" lon="-2.45591">
        <ele>33.7</ele>
        <time>2012-09-16T11:16:24Z</time>
      </trkpt>
      <trkpt lat="48.64621" lon="-2.4558">
        <ele>33.7</ele>
        <time>2012-09-16T11:16:24Z</time>
      </trkpt>
      <trkpt lat="48.64596" lon="-2.45628">
        <ele>34.8</ele>
        <time>2012-09-16T11:16:24Z</time>
      </trkpt>
      <trkpt lat="48.64578" lon="-2.45633">
        <ele>35</ele>
        <time>2012-09-16T11:16:24Z</time>
      </trkpt>
      <trkpt lat="48.64575" lon="-2.45636">
        <ele>35</ele>
        <time>2012-09-16T11:16:24Z</time>
      </trkpt>
      <trkpt lat="48.64574" lon="-2.45639">
        <ele>35</ele>
        <time>2012-09-16T11:16:24Z</time>
      </trkpt>
      <trkpt lat="48.64573" lon="-2.45637">
        <ele>35</ele>
        <time>2012-09-16T11:16:24Z</time>
      </trkpt>
      <trkpt lat="48.64572" lon="-2.4564">
        <ele>35</ele>
        <time>2012-09-16T11:16:24Z</time>
      </trkpt>
      <trkpt lat="48.6457" lon="-2.45641">
        <ele>35</ele>
        <time>2012-09-16T11:16:24Z</time>
      </trkpt>
      <trkpt lat="48.64569" lon="-2.45643">
        <ele>35.1</ele>
        <time>2012-09-16T11:16:24Z</time>
      </trkpt>
      <trkpt lat="48.64568" lon="-2.45645">
        <ele>35.1</ele>
        <time>2012-09-16T11:16:24Z</time>
      </trkpt>
      <trkpt lat="48.64566" lon="-2.45646">
        <ele>35.2</ele>
        <time>2012-09-16T11:16:24Z</time>
      </trkpt>
      <trkpt lat="48.64564" lon="-2.45647">
        <ele>35.2</ele>
        <time>2012-09-16T11:16:24Z</time>
      </trkpt>
      <trkpt lat="48.64562" lon="-2.45647">
        <ele>35.2</ele>
        <time>2012-09-16T11:16:24Z</time>
      </trkpt>
      <trkpt lat="48.6456" lon="-2.45649">
        <ele>35.3</ele>
        <time>2012-09-16T11:16:24Z</time>
      </trkpt>
      <trkpt lat="48.64558" lon="-2.45649">
        <ele>35.3</ele>
        <time>2012-09-16T11:16:24Z</time>
      </trkpt>
      <trkpt lat="48.64556" lon="-2.45649">
        <ele>35.4</ele>
        <time>2012-09-16T11:16:24Z</time>
      </trkpt>
      <trkpt lat="48.64554" lon="-2.45649">
        <ele>35.4</ele>
        <time>2012-09-16T11:16:24Z</time>
      </trkpt>
      <trkpt lat="48.64552" lon="-2.45649">
        <ele>35.4</ele>
        <time>2012-09-16T11:16:24Z</time>
      </trkpt>
      <trkpt lat="48.6455" lon="-2.45649">
        <ele>35.5</ele>
        <time>2012-09-16T11:16:24Z</time>
      </trkpt>
      <trkpt lat="48.64548" lon="-2.45651">
        <ele>35.6</ele>
        <time>2012-09-16T11:16:24Z</time>
      </trkpt>
      <trkpt lat="48.64546" lon="-2.45652">
        <ele>35.7</ele>
        <time>2012-09-16T11:16:24Z</time>
      </trkpt>
      <trkpt lat="48.64546" lon="-2.45654">
        <ele>35.7</ele>
        <time>2012-09-16T11:16:24Z</time>
      </trkpt>
      <trkpt lat="48.64545" lon="-2.45656">
        <ele>35.8</ele>
        <time>2012-09-16T11:16:24Z</time>
      </trkpt>
      <trkpt lat="48.64541" lon="-2.45655">
        <ele>35.8</ele>
        <time>2012-09-16T11:16:24Z</time>
      </trkpt>
      <trkpt lat="48.64541" lon="-2.45655">
        <ele>35.8</ele>
        <time>2012-09-16T11:16:24Z</time>
      </trkpt>
    </trkseg>
  </trk>
</gpx>